This demonstration page uses our WeatherBlox Daily Observations layout. Learn more.

Left ArrowRight Arrow

Hourly Observations for February 1, 2021

Temp ( °F °C ) Dew Point ( °F °C ) Humidity (%) Winds ( mph kmh ) Pressure ( in mb ) Visibility ( mi km ) Precip ( " mm )
12:54 am 00:54 Cloudy 26 -3.3 22 -5.6 84 84 NW 7 11 30.46 1031 7 11.26538 0 0
1:54 am 01:54 Cloudy 26 -3.3 22 -5.6 84 84 NNW 5 7 30.45 1031 7 11.26538 0 0
2:54 am 02:54 Cloudy 26 -3.3 23 -5 88 88 NW 7 11 30.46 1031 7 11.26538 0 0
3:54 am 03:54 Cloudy with Mist and Fog 26 -3.3 23 -5 88 88 NNW 6 9 30.45 1031 6 9.65604 0 0
4:54 am 04:54 Cloudy 27 -2.8 23 -5 85 85 N 8 13 30.45 1031 8 12.87472 0 0
5:54 am 05:54 Cloudy 26 -3.3 22 -5.6 84 84 NNE 9 15 30.47 1032 8 12.87472 0 0
6:54 am 06:54 Cloudy 26 -3.3 22 -5.6 84 84 N 7 11 30.48 1032 8 12.87472 0 0
7:54 am 07:54 Cloudy with Mist and Fog 26 -3.3 22 -5.6 84 84 NNE 8 13 30.48 1032 6 9.65604 0 0
8:54 am 08:54 Cloudy with Mist and Fog 26 -3.3 22 -5.6 84 84 NE 6 9 30.48 1032 6 9.65604 0 0
9:54 am 09:54 Cloudy with Haze 27 -2.8 22 -5.6 81 81 NNW 3 6 30.49 1033 6 9.65604 0 0
10:54 am 10:54 Cloudy with Mist and Fog 27 -2.8 23 -5 85 85 Calm 30.48 1032 6 9.65604 0 0
11:54 am 11:54 Cloudy with Mist and Fog 27 -2.8 24 -4.4 89 89 Calm 30.47 1032 6 9.65604 0 0
12:54 pm 12:54 Cloudy with Haze 30 -1.1 24 -4.4 79 79 Calm 30.45 1031 6 9.65604 0 0
1:54 pm 13:54 Cloudy 30 -1.1 25 -3.9 82 82 Calm 30.42 1030 7 11.26538 0 0
2:17 pm 14:17 Cloudy 31 -0.6 24 -4.4 76 76 Calm 30.43 1031 7 11.26538 0 0
2:54 pm 14:54 Partly Cloudy 34 1.1 24 -4.4 67 67 Calm 30.4 1030 7 11.26538 0 0
3:54 pm 15:54 Sunny 32 0 24 -4.4 73 73 NNE 3 6 30.4 1030 7 11.26538 0 0
4:54 pm 16:54 Sunny 30 -1.1 23 -5 75 75 NE 6 9 30.4 1029 7 11.26538 0 0
5:54 pm 17:54 Hazy 26 -3.3 21 -6.1 81 81 ENE 8 13 30.39 1029 6 9.65604 0 0
6:54 pm 18:54 Clear 27 -2.8 21 -6.1 78 78 ESE 5 7 30.38 1029 7 11.26538 0 0
7:54 pm 19:54 Clear with Mist and Fog 24 -4.4 20 -6.7 84 84 E 8 13 30.38 1029 6 9.65604 0 0
8:11 pm 20:11 Partly Cloudy with Mist and Fog 23 -5 20 -6.7 88 88 ESE 7 11 30.42 1030 5 8.0467 0 0
8:15 pm 20:15 Mostly Cloudy with Mist and Fog 23 -5 20 -6.7 88 88 SE 7 11 30.43 1030 5 8.0467 0 0
8:54 pm 20:54 Cloudy with Mist and Fog 24 -4.4 22 -5.6 91 91 SE 7 11 30.38 1029 4 6.43736 0 0
9:22 pm 21:22 Cloudy with Mist and Fog 24 -4.4 22 -5.6 91 91 SSE 7 11 30.41 1030 2.5 4.02335 0 0
9:54 pm 21:54 Cloudy with Mist and Fog 24 -4.4 22 -5.6 91 91 SSE 8 13 30.38 1029 1.25 2.011675 0 0
10:54 pm 22:54 Cloudy with Mist and Fog 24 -4.4 22 -5.6 91 91 SSE 7 11 30.37 1028 2 3.21868 0.001 0.001
11:08 pm 23:08 Cloudy with Light Snow 24 -4.4 22 -5.6 91 91 ESE 6 9 30.4 1030 1.25 2.011675 0.001 0.001
11:23 pm 23:23 Cloudy with Mist and Fog 24 -4.4 22 -5.6 91 91 ESE 6 9 30.4 1030 3 4.82802 0.001 0.001
11:42 pm 23:42 Cloudy with Mist and Fog 24 -4.4 22 -5.6 91 91 SE 5 7 30.4 1030 2.5 4.02335 0.001 0.001
11:54 pm 23:54 Cloudy with Mist and Fog 24 -4.4 22 -5.6 91 91 ESE 5 7 30.37 1029 1.75 2.816345 0.001 0.001

Powered by AerisWeather